• In Spain
  • List of Countries
  • For 7 days
  • Water Temperature
  • Satellite Maps
  • Weather Map
  • Weather Widgets
  • user-avatar
    Login

    Hourly Weather Sobreda

    Today, 23 January, Tuesday

    Time Temperature Precipitation Wind Pressure Humidity
    00:00 +10°C° 0 mm 4 mps 765 mmHg 93%
    01:00 +10°C° 0 mm 4 mps 765 mmHg 94%
    02:00 +10°C° 0 mm 4 mps 765 mmHg 94%
    03:00 +8°C° 0 mm 4 mps 765 mmHg 95%
    04:00 +8°C° 0 mm 4 mps 765 mmHg 95%
    05:00 +8°C° 0 mm 4 mps 765 mmHg 96%
    06:00 +8°C° 0 mm 4 mps 765 mmHg 95%
    07:00 +10°C° 0 mm 4 mps 765 mmHg 94%
    08:00 +10°C° 0 mm 4 mps 765 mmHg 93%
    09:00 +12°C° 0 mm 4 mps 765 mmHg 85%
    10:00 +14°C° 0 mm 4 mps 765 mmHg 76%
    11:00 +17°C° 0 mm 4 mps 765 mmHg 68%
    12:00 +17°C° 0 mm 4 mps 765 mmHg 66%
    13:00 +18°C° 0 mm 4 mps 764 mmHg 63%
    14:00 +19°C° 0 mm 4 mps 764 mmHg 61%
    15:00 +17°C° 0 mm 4 mps 764 mmHg 68%
    16:00 +15°C° 0 mm 4 mps 764 mmHg 75%
    17:00 +13°C° 0 mm 4 mps 764 mmHg 82%
    18:00 +12°C° 0 mm 4 mps 764 mmHg 86%
    19:00 +12°C° 0 mm 4 mps 764 mmHg 90%
    20:00 +11°C° 0 mm 4 mps 764 mmHg 93%
    21:00 +10°C° 0 mm 4 mps 764 mmHg 94%
    22:00 +10°C° 0 mm 4 mps 764 mmHg 94%
    23:00 +10°C° 0 mm 4 mps 764 mmHg 95%

    Tomorrow, 24 January, Wednesday

    Time Temperature Precipitation Wind Pressure Humidity
    00:00 +9°C° 0 mm 3 mps 764 mmHg 95%
    01:00 +9°C° 0 mm 3 mps 764 mmHg 95%
    02:00 +9°C° 0 mm 3 mps 764 mmHg 96%
    03:00 +9°C° 0 mm 3 mps 763 mmHg 96%
    04:00 +8°C° 0 mm 2 mps 763 mmHg 96%
    05:00 +8°C° 0 mm 2 mps 763 mmHg 97%
    06:00 +9°C° 0 mm 2 mps 763 mmHg 96%
    07:00 +9°C° 0 mm 2 mps 763 mmHg 95%
    08:00 +10°C° 0 mm 2 mps 764 mmHg 94%
    09:00 +12°C° 0 mm 2 mps 764 mmHg 87%
    10:00 +13°C° 0 mm 2 mps 764 mmHg 80%
    11:00 +15°C° 0 mm 2 mps 764 mmHg 73%
    12:00 +16°C° 0 mm 2 mps 763 mmHg 69%
    13:00 +16°C° 0 mm 2 mps 763 mmHg 64%
    14:00 +17°C° 0 mm 2 mps 763 mmHg 60%
    15:00 +16°C° 0 mm 2 mps 763 mmHg 66%
    16:00 +14°C° 0 mm 2 mps 763 mmHg 72%
    17:00 +13°C° 0 mm 2 mps 763 mmHg 78%
    18:00 +12°C° 0 mm 2 mps 763 mmHg 81%
    19:00 +12°C° 0 mm 2 mps 763 mmHg 84%
    20:00 +10°C° 0 mm 2 mps 763 mmHg 87%
    21:00 +10°C° 0 mm 2 mps 763 mmHg 88%
    22:00 +10°C° 0 mm 2 mps 763 mmHg 89%
    23:00 +10°C° 0 mm 2 mps 763 mmHg 90%

    Day after tomorrow, 25 January, Thursday

    Time Temperature Precipitation Wind Pressure Humidity
    00:00 +10°C° 0 mm 2 mps 763 mmHg 91%
    01:00 +10°C° 0 mm 2 mps 762 mmHg 92%
    02:00 +10°C° 0 mm 3 mps 762 mmHg 94%
    03:00 +11°C° 0.2 mm 3 mps 762 mmHg 94%
    04:00 +11°C° 0.2 mm 4 mps 762 mmHg 94%
    05:00 +12°C° 0.2 mm 4 mps 761 mmHg 95%
    06:00 +12°C° 0.6 mm 4 mps 762 mmHg 94%
    07:00 +12°C° 0.6 mm 5 mps 762 mmHg 94%
    08:00 +13°C° 0.6 mm 5 mps 762 mmHg 94%
    09:00 +13°C° 0.1 mm 6 mps 762 mmHg 87%
    10:00 +14°C° 0.1 mm 6 mps 763 mmHg 79%
    11:00 +14°C° 0.1 mm 7 mps 763 mmHg 72%
    12:00 +14°C° 0 mm 7 mps 763 mmHg 67%
    13:00 +15°C° 0 mm 8 mps 762 mmHg 62%
    14:00 +15°C° 0 mm 8 mps 762 mmHg 56%
    15:00 +12°C° 0 mm 8 mps 762 mmHg 60%
    16:00 +11°C° 0 mm 7 mps 763 mmHg 63%
    17:00 +10°C° 0 mm 7 mps 763 mmHg 66%
    18:00 +9°C° 0 mm 7 mps 764 mmHg 68%
    19:00 +9°C° 0 mm 7 mps 764 mmHg 70%
    20:00 +8°C° 0 mm 7 mps 765 mmHg 72%
    21:00 +8°C° 0 mm 7 mps 765 mmHg 72%
    22:00 +7°C° 0 mm 6 mps 765 mmHg 73%
    23:00 +7°C° 0 mm 6 mps 765 mmHg 74%

    26 January, Friday

    Time Temperature Precipitation Wind Pressure Humidity
    00:00 +7°C° 0 mm 6 mps 765 mmHg 75%
    01:00 +7°C° 0 mm 6 mps 765 mmHg 75%
    02:00 +5°C° 0 mm 6 mps 765 mmHg 76%
    03:00 +5°C° 0.1 mm 6 mps 765 mmHg 77%
    04:00 +5°C° 0.1 mm 6 mps 765 mmHg 78%
    05:00 +5°C° 0.1 mm 6 mps 765 mmHg 78%
    06:00 +6°C° 0.1 mm 7 mps 766 mmHg 77%
    07:00 +6°C° 0.1 mm 7 mps 766 mmHg 76%
    08:00 +8°C° 0.1 mm 7 mps 767 mmHg 75%
    09:00 +9°C° 0 mm 8 mps 767 mmHg 67%
    10:00 +10°C° 0 mm 8 mps 768 mmHg 59%
    11:00 +12°C° 0 mm 8 mps 768 mmHg 51%
    12:00 +12°C° 0 mm 8 mps 768 mmHg 49%
    13:00 +12°C° 0 mm 8 mps 768 mmHg 48%
    14:00 +13°C° 0 mm 8 mps 767 mmHg 46%
    15:00 +11°C° 0 mm 8 mps 768 mmHg 51%
    16:00 +10°C° 0 mm 7 mps 768 mmHg 57%
    17:00 +9°C° 0 mm 7 mps 768 mmHg 62%
    18:00 +8°C° 0 mm 7 mps 769 mmHg 65%
    19:00 +8°C° 0 mm 7 mps 769 mmHg 69%
    20:00 +6°C° 0 mm 7 mps 770 mmHg 73%
    21:00 +6°C° 0 mm 7 mps 770 mmHg 74%
    22:00 +6°C° 0 mm 7 mps 770 mmHg 75%
    23:00 +6°C° 0 mm 7 mps 770 mmHg 77%

    27 January, Saturday

    Time Temperature Precipitation Wind Pressure Humidity
    00:00 +5°C° 0 mm 7 mps 770 mmHg 77%
    01:00 +5°C° 0 mm 7 mps 770 mmHg 78%
    02:00 +5°C° 0 mm 7 mps 770 mmHg 79%
    03:00 +5°C° 0 mm 7 mps 769 mmHg 79%
    04:00 +4°C° 0 mm 7 mps 769 mmHg 79%
    05:00 +4°C° 0 mm 7 mps 769 mmHg 79%
    06:00 +4°C° 0 mm 7 mps 769 mmHg 76%
    07:00 +5°C° 0 mm 7 mps 770 mmHg 74%
    08:00 +5°C° 0 mm 7 mps 770 mmHg 71%
    09:00 +8°C° 0 mm 7 mps 770 mmHg 64%
    10:00 +10°C° 0 mm 7 mps 770 mmHg 57%
    11:00 +12°C° 0 mm 7 mps 770 mmHg 50%
    12:00 +14°C° 0 mm 7 mps 769 mmHg 50%
    13:00 +14°C° 0 mm 7 mps 768 mmHg 49%
    14:00 +15°C° 0 mm 7 mps 768 mmHg 49%
    15:00 +14°C° 0 mm 7 mps 768 mmHg 55%
    16:00 +11°C° 0 mm 7 mps 768 mmHg 61%
    17:00 +10°C° 0 mm 7 mps 767 mmHg 68%
    18:00 +10°C° 0 mm 8 mps 767 mmHg 72%
    19:00 +9°C° 0 mm 8 mps 767 mmHg 76%
    20:00 +9°C° 0 mm 8 mps 767 mmHg 80%
    21:00 +10°C° 0 mm 9 mps 767 mmHg 79%
    22:00 +10°C° 0 mm 9 mps 766 mmHg 78%
    23:00 +9°C° 0 mm 10 mps 766 mmHg 77%

    28 January, Sunday

    Time Temperature Precipitation Wind Pressure Humidity
    00:00 +10°C° 0 mm 9 mps 765 mmHg 79%
    01:00 +10°C° 0 mm 9 mps 765 mmHg 81%
    02:00 +8°C° 0 mm 9 mps 764 mmHg 82%
    03:00 +8°C° 0 mm 9 mps 764 mmHg 79%
    04:00 +8°C° 0 mm 9 mps 764 mmHg 76%
    05:00 +8°C° 0 mm 9 mps 764 mmHg 73%
    06:00 +7°C° 0 mm 9 mps 764 mmHg 69%
    07:00 +7°C° 0 mm 9 mps 765 mmHg 65%
    08:00 +7°C° 0 mm 9 mps 765 mmHg 61%
    09:00 +8°C° 0 mm 9 mps 765 mmHg 54%
    10:00 +10°C° 0 mm 9 mps 765 mmHg 46%
    11:00 +11°C° 0 mm 8 mps 765 mmHg 39%
    12:00 +12°C° 0 mm 7 mps 765 mmHg 38%
    13:00 +14°C° 0 mm 7 mps 764 mmHg 37%
    14:00 +14°C° 0 mm 6 mps 764 mmHg 36%
    15:00 +13°C° 0 mm 5 mps 764 mmHg 40%
    16:00 +10°C° 0 mm 5 mps 764 mmHg 44%
    17:00 +10°C° 0 mm 4 mps 764 mmHg 49%
    18:00 +8°C° 0 mm 4 mps 764 mmHg 51%
    19:00 +8°C° 0 mm 4 mps 764 mmHg 53%
    20:00 +7°C° 0 mm 4 mps 764 mmHg 55%
    21:00 +7°C° 0 mm 4 mps 763 mmHg 55%
    22:00 +7°C° 0 mm 5 mps 763 mmHg 56%
    23:00 +6°C° 0 mm 5 mps 763 mmHg 56%
    Show more